Location: Zagreb
(45.8000°N, 16.0000°E)
Time: 12:34:14
(UTC+01:00)

Vanguard 1 Rocket - Pass Details

Date: 05 October 2020
Orbit: 656 x 4221 km, 34.3° (Epoch: 28 October)

Event Time Altitude Azimuth Distance (km) Brightness Sun altitude
Rises 19:34:43 0° 260° (W) 4,969 12.8 -12.5°
Reaches altitude 10° 19:37:26 10° 255° (WSW) 4,327 12.0 -12.9°
Maximum altitude 19:49:50 55° 182° (S) 3,341 10.1 -15.1°
Enters shadow 20:07:11 18° 117° (ESE) 6,325 11.0 -18.1°
Drops below altitude 10° 20:11:53 10° 114° (ESE) 7,249 - -18.9°
Sets 20:18:12 0° 111° (ESE) 8,436 - -19.9°
